FENGYUN 3E

Last updated on Thu Jul 03 2025 00:02:22 GMT+0000 (Coordinated Universal Time)

1 49008U 21062A 25183.60944845 -.00000005 00000+0 18531-4 0 9998 2 49008 98.7417 186.0579 0002268 47.3486 312.7881 14.19868690206971
UTC large
Height (km)
Speed (km/s)
/
Latitude / Longitude
Inclination (degrees)
Orbital Period (minutes)
Azimuth
Elevation
Range (km)
Doppler Factor

Next 0 passes for location: London (51.5072 / 0.1276)

Sorry there are no passes over London.